User: anonymous   Login
Location: Unspecified
(0.0000°N, 0.0000°E)
Time: 18:46:32
(UTC+00:00)
Language:

SWISSCUBE - Orbit

View from above orbital plane
View from above orbital plane
View from above satellite
View from above satellite

Ground track
Ground track

The orbit data is extracted from the following two-line orbital elements,

1 35932U 09051B   18351.41740294  .00000112  00000-0  36439-4 0  9999
2 35932  98.5661 147.2539 0007772  16.3506 343.7941 14.56226529490101
Epoch (UTC): 17 December 2018 10:01:03
Eccentricity: 0.0007772
inclination: 98.5661°
perigee height: 700 km
apogee height: 711 km
right ascension of ascending node: 147.2539°
argument of perigee: 16.3506°
revolutions per day: 14.56226529
mean anomaly at epoch: 343.7941°
orbit number at epoch: 49010

The dashed part of the orbit path shows where the satellite is in the earth's shadow,  

DLR